Weather History for CYGV - February, 2013

Change the Weather History Date:

Friday, February 22, 2013

  Actual Average Record
Temperature  
Mean Temperature 14 °F -  
Max Temperature 26 °F 24 °F 30 °F (2012)
Min Temperature 1 °F 7 °F -20 °F (2000)
Degree Days  
Heating Degree Days 52    
Moisture  
Dew Point 2 °F    
Average Humidity 52    
Maximum Humidity 73    
Minimum Humidity 28    
Precipitation  
Precipitation 0.00 in - - ()
Sea Level Pressure  
Sea Level Pressure 30.37 in    
Wind  
Wind Speed 10 mph ()    
Max Wind Speed 15 mph    
Max Gust Speed 24 mph    
Visibility 9.0 miles    
Events      
Averages and records for this station are not official NWS values.
T = Trace of Precipitation, MM = Missing Value Source: Averaged Metar Reports

Daily Weather History Graph

Daily Weather History Graph

Search for Another Location

Airport or City:

Trip Planner

Search our weather history database for the weather conditions in past years. The results will help you decide how hot, cold, wet, or windy it might be!

Date:

Astronomy

Feb. 22, 2013 Rise Set
Actual Time 6:11 AM EST 4:44 PM EST
Civil Twilight 5:38 AM EST 5:17 PM EST
Nautical Twilight 5:01 AM EST 5:55 PM EST
Astronomical Twilight 4:23 AM EST 6:33 PM EST
Moon 1:40 PM EST (2/22) 4:07 AM EST (2/22)
Length of Visible Light 11h 39m
Length of Day
10h 33m
Waxing Gibbous, 90% of the Moon is Illuminated
Feb 22
Waxing Gibbous
Feb 25
Full
Mar 4
Last Quarter
Mar 11
New
Mar 19
First Quarter

Hourly Weather History & Observations

Time (EST) Temp. Windchill Dew Point Humidity Pressure Visibility Wind Dir Wind Speed Gust Speed Precip Events Conditions
12:00 AM 21.2 °F 7.8 °F 10.4 °F 63% 30.25 in 9.0 mi NNE 15.0 mph 24.2 mph N/A   Partly Cloudy
1:00 AM 19.4 °F 5.5 °F 8.6 °F 63% 30.27 in 9.0 mi NNE 15.0 mph 24.2 mph N/A   Clear
2:00 AM 17.6 °F 5.0 °F 8.6 °F 68% 30.30 in 9.0 mi NNE 11.5 mph 17.3 mph N/A   Clear
3:00 AM 15.8 °F 0.9 °F 6.8 °F 68% 30.32 in 9.0 mi NE 15.0 mph - N/A   Clear
4:00 AM 15.8 °F 2.1 °F 6.8 °F 68% 30.35 in 9.0 mi NNE 12.7 mph 21.9 mph N/A   Clear
5:00 AM 15.8 °F 5.1 °F 6.8 °F 68% 30.37 in 9.0 mi North 8.1 mph - N/A   Overcast
6:00 AM 14.0 °F 5.1 °F 6.8 °F 73% 30.39 in 9.0 mi WNW 5.8 mph - N/A   Overcast
7:00 AM 15.8 °F 2.1 °F 6.8 °F 68% 30.41 in 9.0 mi NNE 12.7 mph - N/A   Overcast
8:00 AM 17.6 °F 7.3 °F 6.8 °F 63% 30.41 in 9.0 mi NNE 8.1 mph - N/A   Clear
9:00 AM 19.4 °F 6.6 °F 5.0 °F 54% 30.42 in 9.0 mi NNE 12.7 mph - N/A   Clear
10:00 AM 19.4 °F 7.9 °F 5.0 °F 54% 30.41 in 9.0 mi North 10.4 mph - N/A   Clear
11:00 AM 23.0 °F 11.1 °F -0.4 °F 36% 30.40 in 9.0 mi North 12.7 mph - N/A   Clear
12:00 PM 24.8 °F 12.4 °F -0.4 °F 34% 30.38 in 9.0 mi NNE 15.0 mph 20.7 mph N/A   Clear
1:00 PM 24.8 °F 12.4 °F -4.0 °F 28% 30.37 in 9.0 mi NNE 15.0 mph 21.9 mph N/A   Clear
2:00 PM 26.6 °F 16.2 °F -2.2 °F 29% 30.37 in 9.0 mi NNE 11.5 mph - N/A   Clear
3:00 PM 26.6 °F 17.5 °F -2.2 °F 29% 30.37 in 9.0 mi North 9.2 mph - N/A   Clear
4:00 PM 24.8 °F 16.1 °F -2.2 °F 31% 30.37 in 9.0 mi North 8.1 mph - N/A   Clear
5:00 PM 19.4 °F 12.8 °F -4.0 °F 36% 30.38 in 9.0 mi NNW 4.6 mph - N/A   Clear
6:00 PM 17.6 °F 7.3 °F -4.0 °F 38% 30.40 in 9.0 mi North 8.1 mph - N/A   Clear
7:00 PM 12.2 °F 2.9 °F -2.2 °F 53% 30.41 in 9.0 mi North 5.8 mph - N/A   Clear
8:00 PM 12.2 °F 1.7 °F -4.0 °F 48% 30.41 in 9.0 mi North 6.9 mph - N/A   Clear
9:00 PM 10.4 °F 0.8 °F -4.0 °F 52% 30.42 in 9.0 mi North 5.8 mph - N/A   Clear
10:00 PM 1.4 °F - -5.8 °F 72% 30.41 in 9.0 mi NNW 2.3 mph - N/A   Clear
11:00 PM 8.6 °F -3.7 °F -4.0 °F 57% 30.39 in 9.0 mi North 8.1 mph - N/A   Clear